EHI
0 0 0 0 0 0 0 0 0 0 0 0 0 0 0 0 0 0 0 0 0 0 0 0 0 0 0 0 0 0 0 0 0 0 0 0 0 0 0 0 0 0 0 0
0 0 0 0 0 0 0 0 0 0 0 0 0 0 0 0 0 0 0 0 0 0 0 0 0 0 0 0 0 0 0 0 0 0 0 0 0 0 0 0 0 0 0 0
0 0 0 0 0 0 0 0 0 0 0 0 0 0 0 0 0 0 0 0 0 0 0 0 0 0 0 0 0 0 0 0 0 0 0 0 0 0 0 0 0 0 0 0
0 0 0 0 0 0 0 0 0 0 0 0 0 0 0 0 0 0 0 0 0 0 0 0 0 0 0 0 0 0 0 0 0 0 0 0 0 0 0 0 0 0 0 0
0 0 0 0 0 0 0 0 0 0 0 0 0 0 0 0 0 0 0 0 0 0 0 0 0 0 0 0 0 0 0 0 0 0 0 0 0 0 0 0 0 0 0 0
0 0 0 0 0 0 0 0 0 0 0 0 0 0 0 0 0 0 0 0 0 0 0 0 0 0 0 0 0 0 0 0 0 0 0 0 0 0 0 0 0 0 0 0
0 0 0 0 0 0 0 0 0 0 0 0 0 0 0 0 0 0 0 0 0 0 0 0 0 0 0 0 0 0 0 0 0 0 0 0 0 0 0 0 0 0 0 0
0 0 0 0 0 0 0 0 0 0 0 0 0 0 0 0 0 0 0 0 0 0 0 0 0 0 0 0 0 0 0 0 0 0 0 0 0 0 0 0 0 0 0 0
0 0 0 0 0 0 0 0 0 0 0 0 0 0 0 0 0 0 0 0 0 0 0 0 0 0 0 0 0 0 0 0 0 0 0 0 0 0 0 0 0 0 0 0
0 0 0 0 0 0 0 0 0 0 0 0 0 0 0 0 0 0 0 0 0 0 0 0 0 0 0 0 0 0 0 0 0 0 0 0 0 0 0 0 0 0 0 0
0 0 0 0 0 0 0 0 0 0 0 0 0 0 0 0 0 0 0 0 0 0 0 0 0 0 0 0 0 0 0 0 0 0 0 0 0 0 0 0 0 0 0 0
0 0 0 0 0 0 0 0 0 0 0 0 0 0 0 0 0 0 0 0 0 0 0 0 0 0 0 0 0 0 0 0 0 0 0 0 0 0 0 0 0 0 0 0
0 0 0 0 0 0 0 0 0 0 0 0 0 0 0 0 0 0 0 0 0 0 0 0 0 0 0 0 0 0 0 0 0 0 0 0 0 0 0 0 0 0 0 0
0 0 0 0 0 0 0 0 0 0 0 0 0 0 0 0 0 0 0 0 0 0 0 0 0 0 0 0 0 0 0 0 0 0 0 0 0 0 0 0 0 0 0 0
0 0 0 0 0 0 0 0 0 0 0 0 0 0 0 0 0 0 0 0 0 0 0 0 0 0 0 0 0 0 0 0 0 0 0 0 0 0 0 0 0 0 0 0
0 0 0 0 0 0 0 0 0 0 0 0 0 0 0 0 0 0 0 0 0 0 0 0 0 0 0 0 0 0 0 0 0 0 0 0 0 0 0 0 0 0 0 0
0 0 0 0 0 0 0 0 0 0 0 0 0 0 0 0 0 0 0 0 0 0 0 0 0 0 0 0 0 0 0 0 0 0 0 0 0 0 0 0 0 0 0 0
0 0 0 0 0 0 0 0 0 0 0 0 0 0 0 0 0 0 0 0 0 0 0 0 0 0 0 0 0 0 0 0 0 0 0 0 0 0 0 0 0 0 0 0
0 0 0 0 0 0 0 0 0 0 0 0 0 0 0 0 0 0 0 0 0 0 0 0 0 0 0 0 0 0 0 0 0 0 0 0 0 0 0 0 0 0 0 0
0 0 0 0 0 0 0 0 0 0 0 0 0 0 0 0 0 0 0 0 0 0 0 0 0 0 0 0 0 0 0 0 0 0 0 0 0 0 0 0 0 0 0 0
0 0 0 0 0 0 0 0 0 0 0 0 0 0 0 0 0 0 0 0 0 0 0 0 0 0 0 0 0 0 0 0 0 0 0 0 0 0 0 0 0 0 0 0
0 0 0 0 0 0 0 0 0 0 0 0 0 0 0 0 0 0 0 0 0 0 0 0 0 0 0 0 0 0 0 0 0 0 0 0 0 0 0 0 0 0 0 0
0 0 0 0 0 0 0 0 0 0 0 0 0 0 0 0 0 0 0 0 0 0 0 0 0 0 0 0 0 0 0 0 0 0 0 0 0 0 0 0 0 0 0 0
0 0 0 0 0 0 0 0 0 0 0 0 0 0 0 0 0 0 0 0 0 0 0 0 0 0 0 0 0 0 0 0 0 0 0 0 0 0 0 0 0 0 0 0
0 0 0 0 0 0 0 0 0 0 0 0 0 0 0 0 0 0 0 0 0 0 0 0 0 0 0 0 0 0 0 0 0 0 0 0 0 0 0 0 0 0 0 0
0 0 0 0 0 0 0 0 0 0 0 0 0 0 0 0 0 0 0 0 0 0 0 0 0 0 0 0 0 0 0 0 0 0 0 0 0 0 0 0 0 0 0 0
Wind_Speed
2 3 2 5 6 4 3 3 5 6 3 2 5 8 8 5 3 3 3 3 3 2 1 1 2 3 3 3 3 2 2 2 2 1 1 1 1 1 1 1 1 1 1 1
3 3 6 4 3 3 4 4 5 5 3 2 5 9 6 5 6 7 6 5 4 2 0 0 2 2 3 2 2 2 2 1 1 1 0 0 0 0 0 1 1 1 1 1
4 4 2 2 2 3 4 5 5 5 4 2 2 6 4 4 3 4 5 4 4 5 3 2 2 2 2 2 1 1 1 1 1 1 1 2 1 1 1 1 1 1 1 1
3 3 1 2 3 3 6 4 4 3 1 4 2 5 6 4 3 4 4 4 4 3 3 2 2 2 2 1 1 1 1 1 1 1 2 1 1 1 1 1 1 1 1 1
3 2 1 3 5 4 5 3 3 3 2 3 3 4 7 2 4 5 5 4 4 4 3 3 3 3 2 1 1 1 1 1 1 1 1 1 1 1 1 1 1 1 1 1
4 2 2 3 3 2 1 2 2 2 2 4 6 5 7 5 7 5 4 4 3 3 2 2 1 2 1 1 1 1 1 1 1 1 1 1 1 1 1 1 1 1 1 1
3 3 2 0 1 1 2 4 3 3 1 6 2 4 8 5 4 5 5 4 3 2 1 1 1 1 1 1 1 1 1 0 0 0 1 2 2 2 2 2 2 2 1 1
1 5 3 1 2 2 2 5 5 4 5 5 2 6 6 3 1 1 2 2 2 2 1 1 1 2 2 1 1 1 0 1 0 0 1 2 2 2 2 2 2 2 2 2
3 5 2 1 1 3 2 2 3 2 2 4 5 5 5 2 2 2 2 2 1 0 1 0 0 1 1 1 1 1 1 1 1 1 2 2 2 2 3 3 2 2 2 2
3 3 4 2 1 1 2 3 2 2 2 5 5 4 5 3 2 1 0 0 2 2 1 1 1 1 1 1 1 0 1 1 1 1 2 2 2 3 3 2 2 3 3 2
2 2 3 2 2 3 1 1 2 2 3 3 4 6 3 3 2 2 2 2 2 2 2 2 2 1 1 0 1 1 1 1 1 2 2 2 3 3 3 2 3 3 2 2
1 2 2 5 4 2 3 3 4 3 3 3 3 7 2 1 1 2 2 3 3 2 2 2 2 1 0 1 1 1 1 1 2 2 2 2 3 2 2 3 3 2 2 2
2 3 1 5 4 3 1 1 2 2 2 3 4 8 2 3 4 3 3 3 3 3 2 1 1 1 1 1 2 2 1 2 2 2 2 2 2 2 2 2 2 2 2 2
3 3 5 7 6 3 4 4 2 3 4 5 8 8 6 6 5 5 4 4 3 3 2 1 1 1 1 2 2 2 2 2 2 2 2 2 2 2 2 2 2 2 2 2
3 2 4 6 5 4 6 6 5 6 7 8 8 8 8 6 6 5 5 4 4 3 2 2 2 2 2 2 2 3 3 2 2 2 2 3 3 2 2 1 2 2 2 2
2 2 1 5 3 3 5 6 7 7 6 7 7 9 6 5 4 4 5 4 4 3 3 3 3 2 2 2 2 3 3 2 2 1 2 2 2 2 2 2 2 1 1 1
2 3 1 4 4 4 6 6 6 6 5 6 8 7 4 6 5 5 5 4 4 4 3 3 4 3 3 3 2 2 3 2 1 1 2 2 2 2 2 2 2 1 1 1
4 2 2 1 2 5 7 3 4 4 5 4 4 4 4 6 7 5 3 3 4 5 4 4 3 3 3 2 2 2 1 1 1 1 2 2 2 2 2 2 1 1 1 1
3 4 2 1 3 8 5 2 1 3 6 3 4 5 5 5 4 4 2 3 4 5 4 3 3 3 2 2 1 0 1 1 1 2 2 2 2 2 2 1 1 1 1 1
2 2 3 2 3 7 5 3 2 0 4 3 3 4 5 3 4 5 4 5 5 4 3 2 2 1 1 1 0 0 1 1 2 2 2 2 2 1 2 2 1 1 1 1
1 1 2 3 5 8 5 3 1 1 5 3 3 4 3 3 5 6 6 5 4 3 3 2 1 1 1 1 0 0 1 2 2 2 2 2 1 1 1 1 1 1 1 1
4 3 3 3 4 8 2 1 2 4 3 4 4 4 4 5 6 5 4 4 4 3 3 2 1 1 1 1 0 0 1 2 2 2 2 2 2 1 1 1 1 1 0 0
5 6 5 6 6 4 2 3 4 3 4 5 4 4 4 4 5 4 4 4 3 3 2 2 1 2 2 1 0 1 2 1 1 2 2 2 2 2 2 1 1 1 1 0
3 2 2 4 6 5 5 4 4 4 4 4 4 4 4 4 4 4 4 3 3 3 2 2 2 1 2 2 1 1 1 1 1 1 1 1 2 2 2 2 1 1 1 1
4 3 2 5 6 4 4 4 4 4 3 4 4 3 3 3 3 3 3 3 3 3 3 2 1 1 2 2 2 2 1 0 1 1 1 1 1 1 2 2 1 1 1 0
4 5 6 7 6 5 6 5 4 4 4 4 3 4 3 2 3 3 3 3 2 2 2 2 2 2 2 1 2 2 1 0 1 0 1 1 1 1 1 1 2 3 3 4
Wind_Direction
63 85 197 219 209 223 221 225 255 262 267 258 248 259 257 246 217 216 226 223 231 244 265 116 129 125 108 95 92 92 86 58 68 69 76 86 59 35 36 39 33 43 42 50
51 240 234 237 235 247 245 248 264 284 287 257 266 270 260 229 211 207 211 220 218 218 256 80 103 105 111 116 110 105 101 100 97 84 70 202 187 251 25 8 7 19 44 41
188 236 241 216 242 245 252 228 239 261 317 309 294 289 252 243 210 211 213 206 205 195 192 200 146 131 111 107 131 130 120 108 109 74 69 53 42 21 10 357 347 343 6 50
237 273 250 222 235 220 255 240 234 246 263 267 199 275 266 234 235 224 226 210 203 195 182 191 161 148 150 173 152 129 129 102 94 101 102 116 138 215 254 268 288 329 346 16
253 257 224 235 242 224 240 253 244 239 217 268 238 233 272 220 240 242 232 215 204 197 186 196 186 175 164 153 137 122 101 87 78 107 151 156 178 242 283 302 306 321 322 315
246 260 226 231 256 224 248 23 11 39 93 262 234 204 271 226 217 223 219 206 196 183 180 189 170 142 120 103 92 89 92 71 64 124 187 179 195 232 293 309 285 282 289 290
306 292 283 196 353 344 83 82 18 343 303 251 230 209 251 243 221 213 208 210 192 163 153 169 111 115 123 115 111 111 115 73 36 59 240 220 216 219 228 246 256 261 263 259
234 279 254 220 185 208 203 156 175 220 236 275 286 235 255 275 252 165 157 170 156 153 162 185 179 170 176 179 164 147 188 272 279 259 275 256 234 224 235 245 245 245 253 250
197 254 280 262 225 160 172 201 192 170 260 268 261 272 298 343 11 42 56 61 68 135 158 193 218 167 179 191 203 202 229 277 284 274 282 277 251 237 242 251 252 254 259 268
168 257 286 305 4 341 167 160 110 153 225 260 272 263 255 264 255 281 3 263 288 293 250 261 260 190 192 200 236 266 248 255 270 283 280 287 268 253 248 247 255 260 264 259
144 184 297 335 209 220 166 169 175 190 203 214 263 265 239 210 225 240 266 273 271 264 246 259 264 218 207 221 230 264 283 282 284 281 276 277 274 265 258 252 257 257 260 249
162 139 255 261 264 244 202 194 165 188 244 228 252 269 298 201 294 275 285 308 303 290 272 267 239 203 238 285 284 281 289 289 288 287 288 280 280 274 264 260 260 260 261 255
145 123 356 332 327 347 312 244 193 173 180 216 234 266 323 347 340 330 320 312 310 309 299 285 197 211 257 283 294 296 291 288 296 306 298 289 289 281 273 273 269 268 266 265
119 152 190 221 239 242 264 269 224 179 216 240 240 259 289 305 308 312 307 302 312 310 295 257 232 246 266 279 284 289 295 296 304 312 299 290 291 283 277 280 288 283 271 262
114 193 232 258 263 248 256 263 247 226 223 228 253 260 271 281 287 292 296 301 313 308 298 271 260 265 279 296 303 304 306 309 309 304 299 296 301 303 303 303 298 297 290 277
117 177 231 287 275 262 276 272 253 250 244 247 266 274 279 292 295 297 297 299 304 292 281 282 277 275 274 279 295 305 303 303 306 301 303 312 318 320 318 305 296 293 290 289
163 158 195 274 302 334 284 250 233 242 239 227 242 259 299 318 312 299 290 282 286 280 280 277 265 260 260 266 272 282 288 301 308 306 309 316 314 318 312 304 305 294 287 293
165 161 174 267 1 256 251 235 214 235 266 250 243 263 282 288 289 282 269 263 280 286 280 278 271 266 265 268 281 297 309 314 318 323 319 315 321 319 323 330 323 319 293 277
187 161 155 170 249 272 284 274 232 235 276 260 246 274 301 315 311 281 282 292 278 272 272 265 268 261 259 271 283 320 344 333 334 327 316 315 313 310 322 331 326 310 303 303
61 120 143 175 226 255 265 281 287 140 281 269 267 289 313 339 306 285 313 318 313 309 304 300 304 294 276 288 301 77 324 329 316 311 308 310 309 304 305 306 305 308 302 290
54 88 178 210 241 262 261 289 29 172 264 300 296 292 292 269 258 284 302 311 317 316 312 318 325 276 269 273 143 112 324 309 311 322 327 326 320 315 304 323 320 313 327 346
186 183 203 180 222 257 288 39 194 240 290 297 290 282 274 279 290 297 300 310 322 325 325 333 328 316 310 330 111 205 295 308 324 337 345 339 334 333 347 5 348 317 273 296
203 196 194 198 224 262 266 241 261 267 277 282 279 279 279 284 289 296 300 310 316 317 321 342 350 343 337 347 26 246 289 328 351 4 359 354 355 354 359 9 354 346 347 7
250 210 197 256 264 268 270 272 281 275 269 281 278 280 285 279 284 294 302 316 324 325 331 348 2 349 327 328 330 292 303 338 24 14 0 358 5 0 360 2 8 6 346 345
232 192 217 258 273 292 272 253 266 278 285 294 299 291 280 270 279 285 292 298 307 318 321 324 319 303 302 324 338 338 335 21 49 15 359 356 357 353 352 356 357 352 355 343
213 197 198 235 236 233 264 273 272 275 282 281 285 293 297 273 266 275 281 287 296 309 319 323 319 307 306 323 329 333 338 22 108 6 342 336 349 350 360 359 356 360 4 2